User: anonymous   Login
Location: Clatteringshaws Loch
(55.0508°N, 4.2860°W)
Time: 11:22:37
(UTC+01:00)
Language:

Cosmos 2221 Rocket - Orbit

View from above orbital plane
View from above orbital plane
View from above satellite
View from above satellite

Ground track
Ground track

The orbit data is extracted from the following two-line orbital elements,

1 22237U 92080B   16275.23854836  .00000156  00000-0  18360-4 0  9999
2 22237  82.5152 358.6002 0019053 336.4789  77.6374 14.78282894285184
Epoch (UTC): 01 October 2016 05:43:30
Eccentricity: 0.0019053
inclination: 82.5152°
perigee height: 621 km
apogee height: 648 km
right ascension of ascending node: 358.6002°
argument of perigee: 336.4789°
revolutions per day: 14.78282894
mean anomaly at epoch: 77.6374°
orbit number at epoch: 28518

The dashed part of the orbit path shows where the satellite is in the earth's shadow,  

DLR